Location: Chadouillers
(44.3203°N, 4.1988°E)
Time: 21:07:11
(UTC+00:00)

Daily predictions for brighter satellites

Satellite Brightness Start Highest point End
(mag) Time Altitude Azimuth Time Altitude Azimuth Time Altitude Azimuth
DMSP B5D2-2 4.1 18:53:20 10° NNE 18:58:32 61° E 19:03:44 10° S
ATLAS 3B R/B 3.6 18:52:05 10° NNW 18:58:34 39° NE 19:05:16 10° ESE
Cosmos 2360 Rocket 2.3 18:53:03 10° NNW 18:58:45 88° ENE 19:04:24 10° SSE
COSMOS 2487 3.0 18:57:50 10° S 19:00:56 33° ESE 19:04:03 10° NE
HJ-1C 4.5 18:58:30 10° S 19:01:40 47° W 19:04:53 10° NNW
COSMOS 2428 3.6 18:56:50 10° N 19:02:04 34° NE 19:07:16 10° ESE
Cosmos 1689 Rocket 2.4 18:59:37 10° N 19:02:27 65° WNW 19:05:14 10° SSW
USA 186 2.0 18:59:30 10° SSE 19:02:38 48° ENE 19:05:40 10° N
Cosmos 1953 Rocket 3.9 18:58:53 10° N 19:03:06 45° ENE 19:07:14 10° SSE
USA 215 4.3 19:00:04 10° E 19:05:57 37° NNE 19:11:51 10° NW
Cosmos 1092 Rocket 4.4 19:00:35 10° N 19:06:34 45° ENE 19:12:27 10° SSE
SME Rocket 3.1 19:02:46 10° NNE 19:06:39 77° ESE 19:11:38 10° SSW
Cosmos 2333 4.4 19:01:34 10° NNW 19:07:18 60° ENE 19:12:57 10° SE
Cosmos 1833 4.2 19:02:01 10° SSW 19:07:38 86° ESE 19:13:19 10° NNE
Cosmos 1818 4.4 19:06:00 10° S 19:10:35 29° ESE 19:15:12 10° NE
FALCON 9 DEB 3.9 19:08:25 10° SSW 19:11:28 31° SE 19:14:33 10° ENE
H-2A R/B 4.1 19:09:47 10° SSW 19:14:06 29° W 19:18:24 10° NW
Cosmos 44 4.0 19:10:28 10° S 19:14:59 34° ESE 19:19:45 10° NE
SL-16 R/B 4.1 19:10:41 10° NW 19:15:36 31° WSW 19:20:30 10° SSW
Cosmos 2219 Rocket 2.6 19:10:07 10° NNW 19:15:39 49° ENE 19:21:08 10° SE
ERS-2 2.3 19:12:23 10° N 19:16:01 78° WNW 19:19:39 10° SSW
Resurs 01 Rocket 3.1 19:12:50 10° ESE 19:16:09 21° ENE 19:19:29 10° NNE
Cosmos 1455 2.7 19:15:05 10° SSE 19:18:32 36° E 19:21:58 10° NNE
Cosmos 1825 Rocket 3.8 19:15:49 10° NNW 19:20:12 77° W 19:24:36 10° S
SAR-Lupe-4 4.4 19:17:43 10° N 19:21:16 57° WNW 19:24:47 10° SSW
ATLAS 5 CENTAUR R/B 4.1 19:18:47 10° W 19:22:02 22° NW 19:25:37 10° NNE
Resurs 1-3 4.1 19:23:18 10° SE 19:27:26 42° ENE 19:31:34 10° N
Lacrosse 5 rocket 3.8 19:26:45 10° WNW 19:29:59 22° NNW 19:33:19 10° NNE
Cosmos 2034 Rocket 4.2 19:24:03 10° SSW 19:30:15 76° W 19:36:33 10° N
ATLAS 5 CENTAUR R/B 0.6 19:30:05 10° NW 19:31:55 57° NE 19:33:14 20° ESE
Abrixas rocket 2.5 19:31:25 10° SSW 19:32:30 19° SSE 19:32:30 19° SSE
Nadezhda 4 Rocket 4.3 19:27:19 10° NNW 19:33:37 71° W 19:39:49 10° S
Cosmos 405 Rocket 4.0 19:31:56 10° NNE 19:35:22 26° ENE 19:37:21 18° ESE
Cosmos 2279 Rocket 4.5 19:35:15 10° SSE 19:40:53 38° E 19:46:33 10° NNE
SJ-6B 2.8 19:37:23 10° S 19:41:05 74° WSW 19:44:51 10° NNW
Cosmos 2237 Rocket 3.4 19:37:25 10° N 19:42:13 28° NE 19:45:36 16° E
Meteor 2-10 Rocket 3.8 19:37:05 10° SSW 19:42:17 77° W 19:47:46 10° N
BREEZE-M DEB (TANK) 3.7 19:37:50 10° W 19:42:53 81° N 19:48:04 10° E
Exosat Rocket 4.0 19:36:45 10° NNW 19:43:16 59° ENE 19:47:10 18° SE
BREEZE-M DEB (TANK) 4.0 19:41:31 10° WSW 19:44:32 68° NNW 19:52:12 10° ENE
MOS 1 4.3 19:39:21 10° SSE 19:45:00 80° ENE 19:50:40 10° NNW
SL-8 R/B 3.8 19:40:41 10° WNW 19:45:33 75° NNE 19:48:58 19° ESE
Cosmos 405 3.3 19:45:05 10° SSW 19:48:30 67° W 19:51:59 10° N
OBJECT-B 1.5 19:46:23 10° S 19:49:31 54° W 19:52:42 10° NNW
IRS-1A Rocket 4.3 19:44:19 10° SSE 19:49:52 88° ENE 19:55:35 10° NNW
Cosmos 2026 Rocket 3.9 19:43:59 10° N 19:50:05 75° E 19:56:11 10° SSE
BREEZE-M DEB (TANK) 4.3 19:49:58 10° W 19:54:05 62° NNW 20:09:23 10° ENE
Cosmos 1892 3.9 19:52:56 10° NNW 19:56:31 41° W 20:00:05 10° SSW
Cosmos 2227 Rocket 3.4 19:57:04 20° ESE 19:57:17 20° E 20:01:17 10° NE
Cosmos 1627 Rocket 4.5 19:54:01 10° N 20:00:11 88° W 20:06:23 10° S
SPOT 1/Viking Rocket 4.4 19:58:13 22° ESE 20:00:39 33° ENE 20:05:18 10° N
Cosmos 2251 Rocket 3.5 19:55:37 10° SSW 20:00:57 74° ESE 20:06:18 10° NNE
Cosmos 389 Rocket 3.0 20:00:14 32° SE 20:01:05 38° E 20:04:24 10° NNE
Cosmos 2297 Rocket 3.0 20:02:13 22° SE 20:04:30 30° ESE 20:09:20 10° NE
Cosmos 1634 Rocket 4.0 19:59:16 10° S 20:05:35 87° W 20:11:52 10° N
Cosmos 2333 Rocket 2.7 20:00:20 10° NNW 20:06:00 60° WSW 20:10:56 14° S
SPOT 3 Rocket 3.6 20:03:45 22° SSE 20:07:02 64° ENE 20:12:11 10° N
Cosmos 2219 4.0 20:05:52 25° SE 20:07:10 28° ESE 20:11:52 10° NE
BREEZE-M DEB (TANK) 2.9 20:05:26 10° NW 20:07:36 32° NNE 20:08:16 26° NE
ATLAS 2AS CENTAUR R/B 3.6 19:59:55 10° SW 20:07:45 63° NW 20:15:28 10° NNE
Cosmos 1825 2.4 20:05:35 10° NNW 20:09:20 68° W 20:11:59 18° S
Cosmos 2142 Rocket 4.5 20:03:23 10° S 20:09:39 72° E 20:16:01 10° NNE
ARIANE 5 R/B 3.8 20:09:19 24° E 20:10:18 26° ENE 20:13:58 10° N
Ariane Rocket 3.5 20:07:34 10° S 20:12:33 60° WSW 20:17:34 10° NNW
Cosmos 1408 4.4 20:14:09 10° NNW 20:17:15 28° W 20:20:20 10° SSW
Orbus 7S? 4.1 20:16:16 10° WSW 20:19:02 48° NNW 20:24:04 10° NE
RESURS DK-1 3.1 20:16:57 10° SW 20:20:59 54° WNW 20:25:04 10° NNE
Landsat 7 3.8 20:20:37 33° SSE 20:22:43 71° ENE 20:27:29 10° N
USA 245 3.8 20:24:37 40° E 20:24:58 42° ENE 20:28:17 10° N
Cosmos-2242 3.7 20:25:50 34° E 20:25:50 34° E 20:29:36 10° NNE
Cosmos 2180 Rocket 4.4 20:23:20 17° S 20:28:06 69° E 20:34:13 10° NNE
Cosmos 2058 4.0 20:26:23 10° NNW 20:30:23 43° W 20:33:19 17° SSW
Cosmos 1655 Rocket 4.0 20:28:58 10° N 20:35:14 63° E 20:37:46 36° SE
Cosmos 614 Rocket 4.0 20:30:31 10° SSW 20:35:40 78° WNW 20:40:49 10° NNE
SL-16 R/B 3.4 20:31:25 10° N 20:36:14 27° NE 20:37:53 24° ENE
Cosmos 1980 3.7 20:32:06 10° NNW 20:37:48 72° ENE 20:39:45 42° SE
BREEZE-M DEB (TANK) 4.5 20:34:20 10° W 20:38:54 63° N 20:56:43 10° E
IRIDIUM 104 4.4 20:40:01 21° S 20:43:32 74° W 20:48:46 10° N
Cosmos 2151 2.8 20:40:32 10° N 20:44:51 73° E 20:45:17 66° SE
Cosmos 2344 3.9 20:38:40 10° SW 20:46:05 64° NW 20:54:00 10° NE
COSMOS 2428 3.8 20:41:05 10° NW 20:46:24 40° WSW 20:49:50 20° SSW
Meteor 2-3 Rocket 3.8 20:41:14 10° N 20:46:58 63° ENE 20:48:26 47° SE
FALCON 9 DEB 4.3 20:45:02 10° W 20:48:18 41° NNW 20:49:45 26° NNE
USA 215 3.2 20:45:38 37° ESE 20:48:28 82° NE 20:55:03 10° NW
Meteor 1-27 4.5 20:47:48 45° ESE 20:48:35 48° E 20:54:08 10° NNE
Cosmos 1076 Rocket 4.1 20:44:21 10° NNW 20:48:37 55° W 20:50:07 35° SSW
ATLAS 3B R/B 3.1 20:42:41 10° NW 20:49:36 59° WSW 20:53:13 30° S
Cosmos 1812 Rocket 3.8 20:47:57 32° SSW 20:49:55 70° W 20:54:23 10° N
Cosmos 192 4.4 20:46:12 10° NNW 20:51:10 74° WSW 20:52:27 49° S
Resurs 01 Rocket 2.6 20:50:18 26° SSW 20:52:21 42° W 20:56:37 10° NNW
Cosmos 1818 4.5 20:48:38 10° SW 20:53:54 49° NW 20:59:13 10° NNE
ERS-1 Rocket 3.2 20:54:40 49° E 20:55:07 50° ENE 20:59:59 10° N
Cosmos 407 Rocket 3.3 20:53:35 33° SSW 20:55:55 87° ESE 21:01:07 10° NNE
Cosmos 2219 Rocket 3.9 20:54:38 10° NW 20:59:17 26° WSW 21:02:59 14° SSW
Okean 3 Rocket 4.3 20:55:29 10° N 20:59:21 42° ENE 20:59:21 42° ENE
NOSS 0 Rocket 4.3 20:54:35 10° NW 21:00:40 57° WSW 21:03:07 35° S
Cosmos 1766 Rocket 4.2 21:00:01 10° N 21:03:29 43° NE 21:03:29 43° NE
CARTOSAT-1 3.5 21:04:22 77° NE 21:04:22 77° NE 21:08:34 10° N
Cosmos 1633 3.2 21:01:00 10° NNW 21:04:10 53° WNW 21:04:10 53° WNW
Lacrosse 5 rocket 4.2 21:07:58 10° NW 21:10:29 15° N 21:13:03 10° NE
Cosmos 1954 Rocket 4.4 21:12:17 46° ENE 21:12:17 46° ENE 21:16:19 10° NNE
COSMOS 2455 3.5 21:18:15 38° ENE 21:18:15 38° ENE 21:22:26 10° NE
SPOT 5 2.7 21:19:30 73° NNE 21:19:30 73° NNE 21:23:52 10° N
Cosmos 1140 Rocket 3.7 21:18:31 38° SW 21:20:24 67° WNW 21:25:32 10° NNE
Spot 2 Rocket 3.7 21:21:43 55° SW 21:22:24 61° WSW 21:27:27 10° NNW
Cosmos 2237 Rocket 2.6 21:21:06 10° NW 21:26:34 51° WSW 21:27:26 47° SW
Terra 2.0 21:28:59 62° NNE 21:28:59 62° NNE 21:33:09 10° N
Timation 1 Rocket 4.4 21:33:37 60° ENE 21:33:37 60° ENE 21:38:49 10° NNE
Cosmos 2082 4.0 21:39:13 53° NE 21:39:13 53° NE 21:43:37 10° NNE
Cosmos 2263 Rocket 4.3 21:42:46 13° ENE 21:42:46 13° ENE 21:43:39 10° NE
Cosmos 2227 Rocket 2.5 21:38:45 39° SW 21:40:47 63° WNW 21:46:26 10° NNE
Meteor 2-8 Rocket 4.5 21:42:18 63° SW 21:43:17 77° W 21:49:27 10° N
Cosmos 468 Rocket 4.5 21:39:25 10° NNW 21:43:44 51° NNE 21:43:44 51° NNE
ARIANE 5 R/B 4.0 21:46:52 32° W 21:46:52 32° W 21:50:37 10° NNW
Cosmos 2297 Rocket 3.2 21:43:48 14° SW 21:48:20 44° WNW 21:53:45 10° NNE
Cosmos 2219 4.1 21:47:37 21° WSW 21:51:04 46° WNW 21:56:29 10° NNE
BREEZE M DEB (TANK) 4.5 21:59:04 11° WSW 22:03:33 83° NNW 22:21:26 10° ENE
Cosmos 1763 Rocket 4.0 21:59:04 10° NNW 22:02:58 53° N 22:02:58 53° N
Nadezhda 2 Rocket 4.4 21:59:29 10° N 22:05:45 77° W 22:05:45 77° W
SL-16 R/B 2.9 22:15:08 10° NW 22:19:46 48° WNW 22:19:46 48° WNW
Cosmos 540 Rocket 4.4 22:18:30 10° NNW 22:22:04 43° N 22:22:04 43° N
NOSS 3-1 (C) 4.0 22:20:19 10° NW 22:27:51 77° NE 22:28:43 71° E
Cosmos 2221 4.5 22:30:07 27° NNW 22:30:07 27° NNW 22:32:15 10° N
USA 215 4.4 22:32:58 29° WSW 22:32:58 29° WSW 22:37:33 10° WNW
Cosmos 1553 Rocket 4.2 22:39:11 61° NW 22:39:11 61° NW 22:44:38 10° N
Cosmos 1943 4.0 22:44:50 10° NNW 22:48:59 48° N 22:48:59 48° N
Lacrosse 5 rocket 3.8 22:47:15 10° NNW 22:49:47 23° N 22:49:47 23° N
COSMOS 2455 4.1 23:01:18 31° WNW 23:02:47 35° NW 23:08:18 10° NNE
SeaSat 1 3.8 23:00:56 10° NNE 23:04:24 36° NNW 23:04:24 36° NNW
Terra 4.4 23:07:51 12° WNW 23:07:51 12° WNW 23:08:58 10° WNW
Cosmos 2315 Rocket 4.5 23:10:31 57° NNE 23:10:31 57° NNE 23:15:31 10° N
Cosmos 2263 Rocket 3.2 23:24:25 42° N 23:24:25 42° N 23:28:23 10° NNE
USA 281 3.7 23:33:03 54° NE 23:33:03 54° NE 23:39:17 10° NNW
USA 229 DEB 4.2 23:27:33 10° NW 23:33:33 58° WNW 23:33:33 58° WNW
USA 229 4.2 23:27:38 10° NW 23:33:40 59° WNW 23:33:40 59° WNW
Cosmos 1844 Rocket 4.3 23:39:31 26° NE 23:39:31 26° NE 23:42:09 10° NE
